#timestamp,LO_Frequency,Hit,StdDev 
1513386015.0,286047028.4,Y
1513386015.9,286047028.4,P
1513386035.8,286047011.3,N
1513386055.6,286047014.0,N
1513386075.4,286047014.7,N
1513386095.3,286047017.9,N
1513386115.1,286047020.0,Y
1513386135.8,286046999.8,P
1513386155.7,286047004.2,N
1513386175.5,286047001.6,N
1513386195.3,286047004.3,N
1513386215.2,286047005.1,N
1513386235.9,286047004.5,N
1513386255.7,286047007.8,N
1513386275.6,286047011.1,N
1513386295.4,286047008.3,N
1513386315.2,286047010.1,N
1513386335.0,286047008.2,N
1513386336.0,286047008.2,N
1513386355.8,286047007.1,N
1513386375.6,286047005.1,N
1513386395.4,286047005.2,N
1513386415.3,286047003.2,N
1513386435.1,286047008.9,N
1513386455.8,286047004.2,N
1513386475.7,286046999.0,N
1513386495.5,286047003.5,N
1513386515.3,286047007.4,N
1513386535.2,286047009.1,N
1513386555.9,286047004.7,N
1513386575.7,286047002.2,N
1513386595.6,286047004.2,N
1513386615.4,286047002.2,N
1513386635.3,286047000.5,N
1513386655.1,286047002.8,N
1513386656.0,286047002.8,N
1513386675.8,286046999.7,N
1513386695.7,286046999.1,N
1513386715.5,286047001.1,N
1513386735.3,286046996.3,N
1513386755.2,286046997.1,N
1513386775.9,286046999.7,N
1513386795.7,286047000.3,N
1513386815.5,286046995.9,N
1513386835.4,286046986.9,Y
1513386855.2,286046985.9,P
1513386875.0,286046983.6,N
1513386876.0,286046983.6,N
1513386895.8,286046980.8,N
1513386915.6,286046979.1,N
1513386935.4,286046979.2,N
1513386955.3,286046981.3,N
1513386975.1,286046988.1,N
1513386995.8,286046987.6,N
1513387015.7,286046982.4,N
1513387035.5,286046983.4,N
1513387055.3,286046983.5,N
1513387075.2,286046983.3,N
1513387095.9,286046984.1,N
1513387115.7,286046983.6,N
1513387135.6,286046979.1,Y
1513387155.4,286046991.9,P
1513387175.2,286046990.9,N
1513387195.1,286046987.7,P
1513387196.0,286046987.7,Y
1513387215.8,286046999.0,P
1513387235.6,286047001.8,N
1513387255.5,286047003.5,N
1513387275.3,286047008.6,N
1513387295.1,286047003.9,N
1513387315.9,286046996.6,N
1513387335.7,286046996.5,N
1513387355.5,286047000.2,N
1513387375.3,286047008.4,N
1513387395.2,286047007.2,N
1513387415.0,286047005.2,N
1513387415.9,286047005.2,N
1513387435.7,286046999.7,N
1513387455.6,286046998.9,N
1513387475.4,286047002.4,N
1513387495.2,286046998.1,N
1513387515.1,286046997.2,N
1513387516.0,286046997.2,N
1513387535.8,286046999.5,N
1513387555.6,286046998.8,N
1513387575.5,286047003.7,N
1513387595.3,286047001.7,N
1513387615.1,286047002.1,N
1513387635.9,286047001.8,N
1513387655.7,286047007.3,N
1513387675.5,286047003.7,N
1513387695.3,286047000.3,N
1513387715.2,286047000.6,N
1513387735.0,286046999.1,N
1513387735.9,286046999.1,N
1513387755.7,286046998.2,N
1513387775.6,286047000.8,N
1513387795.4,286046996.5,N
1513387815.2,286046996.8,N
1513387835.1,286046997.2,N
1513387836.0,286046997.2,N
1513387855.8,286046998.1,N
1513387875.6,286046998.5,N
1513387895.5,286047004.0,N
1513387915.3,286047002.8,N
1513387935.1,286047002.0,N
1513387955.9,286047000.2,N
1513387975.7,286046996.8,N
1513387995.5,286047001.3,N
1513388015.4,286047002.3,N
1513388035.2,286047002.5,N
1513388055.0,286047003.2,N
1513388055.9,286047003.2,N
1513388075.8,286047001.8,N
1513388095.6,286047003.3,N
1513388115.4,286047005.6,N
1513388135.2,286047003.3,N
1513388155.1,286046997.2,N
1513388156.0,286046997.2,N
1513388175.8,286046993.9,N
1513388195.6,286046994.0,N
1513388215.5,286046994.6,N
1513388235.3,286046996.2,N
1513388255.1,286046997.9,N
1513388275.9,286046998.2,N
1513388295.7,286047004.4,N
1513388315.5,286047005.2,N
1513388335.4,286047006.1,N
1513388355.2,286047012.3,Y
1513388375.0,286047016.8,P
1513388375.9,286047016.8,N
1513388395.8,286047013.8,N
1513388415.6,286047011.6,N
1513388435.4,286047010.3,N
1513388455.3,286047009.9,N
1513388475.1,286047006.4,N
1513388476.0,286047006.4,N
1513388495.8,286047005.6,N
1513388515.7,286047005.9,N
1513388535.5,286047000.5,N
1513388555.3,286046999.6,N
1513388575.1,286046997.6,N
1513388595.9,286046996.3,N
1513388615.7,286046995.4,N
1513388635.5,286046995.1,N
1513388655.4,286046996.7,N
1513388675.2,286046991.7,N
1513388695.0,286046989.9,N
1513388695.9,286046989.9,N
1513388715.8,286046983.5,N
1513388735.6,286046983.6,N
1513388755.4,286046974.8,N
1513388775.3,286046973.7,N
1513388795.1,286046971.6,N
1513388796.0,286046971.6,N
1513388815.8,286046973.6,N
1513388835.6,286046973.3,N
1513388855.5,286046971.7,N
1513388875.3,286046969.9,N
1513388895.1,286046970.8,N
1513388915.9,286046969.4,N
1513388935.7,286046974.9,N
1513388955.5,286046973.6,N
1513388975.4,286046969.3,N
1513388995.2,286046970.7,N
1513389015.0,286046963.3,N
1513389015.9,286046963.3,N
1513389035.8,286046960.8,N
1513389055.6,286046957.8,Y
1513389075.4,286046977.9,P
1513389095.3,286046978.0,P
1513389115.1,286046976.4,P
1513389116.0,286046976.4,Y
1513389135.8,286046995.8,P
1513389155.7,286046991.1,N
1513389175.5,286046991.5,N
1513389195.3,286046990.9,N
1513389215.2,286046990.5,N
1513389235.9,286046989.4,N
1513389255.7,286046989.8,N
1513389275.6,286046987.5,N
1513389295.4,286046986.3,Y
1513389315.2,286046997.8,P
1513389335.1,286046995.6,N
1513389336.0,286046995.6,N
1513389355.8,286046996.5,N
1513389375.6,286047001.1,N
1513389395.5,286046998.8,N
1513389415.3,286047000.7,N
1513389435.1,286047001.4,N
1513389455.8,286047004.8,N
1513389475.7,286047006.7,N
1513389495.5,286047005.6,N
1513389515.3,286047001.4,N
1513389535.2,286047003.4,N
1513389555.9,286047007.0,N
1513389575.7,286047008.7,N
1513389595.6,286047007.8,N
